This is the latest recevied weather packets stored in our database for station/object AK4NG. If no packets are shown the sender has not sent any weather packets the latest 10 day(s).
| Time | Temp. | Humidity | Pressure | Rain* | Wind** | Luminosity | Snow |
|---|---|---|---|---|---|---|---|
| 1777760526 | 20.56° C | 36% | 1015.2 hPa | 0 mm | - | 256 W/m² | - |
| 1777760222 | 21.11° C | 35% | 1015.1 hPa | 0 mm | - | 274 W/m² | - |
| 1777759919 | 21.11° C | 35% | 1014.8 hPa | 0 mm | - | 293 W/m² | - |
| 1777759615 | 21.11° C | 36% | 1015 hPa | 0 mm | - | 309 W/m² | - |
| 1777759311 | 21.67° C | 34% | 1015 hPa | 0 mm | - | 329 W/m² | - |
| 1777759008 | 21.67° C | 37% | 1014.9 hPa | 0 mm | - | 346 W/m² | - |
| 1777758705 | 21.67° C | 32% | 1014.8 hPa | 0 mm | - | 366 W/m² | - |
| 1777758403 | 21.67° C | 33% | 1014.9 hPa | 0 mm | - | 389 W/m² | - |
| 1777758099 | 21.67° C | 36% | 1014.7 hPa | 0 mm | - | 407 W/m² | - |
| 1777757797 | 21.67° C | 35% | 1014.7 hPa | 0 mm | - | 429 W/m² | - |
| 1777757494 | 22.22° C | 38% | 1014.7 hPa | 0 mm | - | 446 W/m² | - |
| 1777757193 | 21.67° C | 39% | 1014.7 hPa | 0 mm | - | 464 W/m² | - |
| 1777756891 | 21.67° C | 35% | 1014.5 hPa | 0 mm | - | 484 W/m² | - |
| 1777756586 | 21.67° C | 36% | 1014.7 hPa | 0 mm | - | 502 W/m² | - |
| 1777756283 | 21.67° C | 33% | 1014.2 hPa | 0 mm | - | 520 W/m² | - |
| 1777755981 | 21.67° C | 33% | 1014.5 hPa | 0 mm | - | 540 W/m² | - |
| 1777755678 | 21.67° C | 36% | 1014.5 hPa | 0 mm | - | 560 W/m² | - |
| 1777755374 | 21.67° C | 37% | 1014.4 hPa | 0 mm | - | 581 W/m² | - |
| 1777755071 | 21.67° C | 36% | 1014.4 hPa | 0 mm | - | 597 W/m² | - |
| 1777754768 | 21.67° C | 35% | 1014.5 hPa | 0 mm | - | 612 W/m² | - |
| 1777754466 | 21.67° C | 42% | 1014.4 hPa | 0 mm | - | 632 W/m² | - |
| 1777754162 | 21.11° C | 39% | 1014.4 hPa | 0 mm | - | 645 W/m² | - |
| 1777753860 | 21.11° C | 43% | 1014.3 hPa | 0 mm | - | 692 W/m² | - |
| 1777753555 | 22.22° C | 41% | 1014.4 hPa | 0 mm | - | 677 W/m² | - |
| 1777753254 | 22.22° C | 42% | 1014.4 hPa | 0 mm | - | 688 W/m² | - |
* Rain latest hour (hover to see other rain measurements)
** Current wind speed in m/s (hover to see current wind gust speed)